[[{"header":{"parameterUnit":"m.s-1","parameterCategory":2,"la1":30.2992,"la2":30.254,"lo1":-89.0895,"lo2":-89.0443,"dy":0.0025,"dx":0.0025,"nx":19,"ny":19,"refTime":"2026-03-18T21:00:00:Z","depth":"0","parameterNumber":2,"parameterNumberName":"U-component_of_CURRENTS"},"data":[0,0,0,-0.1661,-0.1661,-0.1652,-0.1652,-0.161,-0.161,0,0,0,0,0,0,0,0,0,0,0,-0.1665,-0.1665,-0.1661,-0.1661,-0.1652,-0.1652,-0.1611,-0.161,0,0,0,0,0,0,0,0,0,0,0,-0.1665,-0.1665,-0.1665,-0.1661,-0.1652,-0.1652,-0.1611,-0.1626,0,0,0,0,0,0,0,0,0,0,-0.1639,-0.166,-0.1665,-0.1665,-0.1661,-0.1652,-0.1652,-0.1627,-0.1625,-0.1604,0,-0.1599,0,-0.1599,-0.1606,-0.1606,0,0,0,-0.1667,-0.1662,-0.1643,-0.1665,-0.166,-0.1652,-0.1658,-0.1627,-0.1624,-0.1601,-0.1598,-0.1597,-0.1598,-0.1605,-0.1605,-0.1635,-0.1636,0,0,-0.1667,-0.1679,-0.1644,-0.1641,-0.1652,-0.1658,-0.1657,-0.1625,-0.1629,-0.1598,-0.1596,-0.1598,-0.1605,-0.1605,-0.1635,-0.1636,0,0,0,-0.1665,-0.168,-0.1663,-0.1643,-0.1641,-0.1657,-0.1657,-0.1631,-0.1621,-0.1596,-0.1597,-0.1605,-0.1604,-0.1634,-0.1635,-0.172,0,0,0,-0.1665,-0.1677,-0.1663,-0.1672,-0.1641,-0.1644,-0.1663,-0.1623,-0.1619,-0.1597,-0.1605,-0.1603,-0.1633,-0.1634,-0.1716,-0.1718,0,0,0,-0.1667,-0.1678,-0.1672,-0.1673,-0.1664,-0.1644,-0.1633,-0.1623,-0.1619,-0.1606,-0.1603,-0.1632,-0.1634,-0.1712,-0.1713,-0.1617,0,0,0,-0.1687,-0.1713,-0.1672,-0.1709,-0.1664,-0.1693,-0.1634,-0.1651,-0.1648,-0.1604,-0.1633,-0.1635,-0.1711,-0.1709,-0.1616,-0.1509,-0.1504,0,0,-0.1738,-0.172,-0.1744,-0.1708,-0.1747,-0.1695,-0.1753,-0.1714,-0.1668,-0.164,-0.1641,-0.1717,-0.1712,-0.1616,-0.1617,-0.1608,0,0,0,-0.1774,-0.1772,-0.1784,-0.179,-0.1798,-0.1803,-0.1775,-0.1766,-0.1753,-0.1671,-0.1731,-0.1725,-0.1661,-0.1596,-0.1591,-0.1483,-0.1644,-0.1643,-0.1643,-0.1811,-0.1819,-0.1851,-0.1854,-0.1877,-0.1881,-0.1888,-0.1863,-0.1822,-0.184,-0.1807,-0.1808,-0.1747,-0.174,-0.1634,-0.1838,-0.1839,-0.1839,-0.1839,-0.1824,-0.1804,-0.1858,-0.1881,-0.1908,-0.1939,-0.1968,-0.1954,-0.191,-0.191,-0.1843,-0.1707,-0.1738,-0.1627,-0.1845,-0.1844,-0.1843,-0.1843,-0.1842,-0.174,-0.174,-0.1773,-0.1825,-0.188,-0.1936,-0.1917,-0.1953,-0.1939,-0.1921,-0.1725,-0.1722,-0.16,-0.1844,-0.1844,-0.1843,-0.1843,-0.1843,-0.1843,-0.1616,-0.1663,-0.1673,-0.1754,-0.1777,-0.1816,-0.1858,-0.1822,-0.1773,-0.1772,-0.1769,-0.1592,-0.1806,-0.1777,-0.1837,-0.1838,-0.1839,-0.1839,-0.184,-0.1472,-0.1513,-0.1521,-0.1543,-0.1609,-0.1554,-0.1635,-0.1569,-0.1542,-0.1494,-0.1453,-0.1661,-0.1586,-0.1589,-0.1554,-0.1552,-0.1552,-0.1552,-0.1552,-0.137,-0.1398,-0.1391,-0.1394,-0.1394,-0.1422,-0.1259,-0.1253,-0.1252,-0.1226,-0.1279,-0.129,-0.1306,-0.1216,-0.1228,-0.1186,-0.109,-0.1089,-0.1089,-0.1298,-0.1315,-0.1269,-0.1304,-0.1293,-0.1231,-0.1058,-0.0983,-0.1013,-0.1064,-0.1151,-0.1171,-0.1188,-0.1222,-0.1083,-0.1109,-0.1041,0,0]},{"header":{"parameterUnit":"m.s-1","parameterCategory":2,"la1":30.2992,"la2":30.254,"lo1":-89.0895,"lo2":-89.0443,"dy":0.0025,"dx":0.0025,"nx":19,"ny":19,"refTime":"2026-03-18T21:00:00:Z","depth":"0","parameterNumber":3,"parameterNumberName":"V-component_of_CURRENTS"},"data":[0,0,0,-0.0314,-0.0313,-0.0287,-0.0287,-0.0226,-0.0225,0,0,0,0,0,0,0,0,0,0,0,-0.0327,-0.0326,-0.0314,-0.0313,-0.0287,-0.0287,-0.0226,-0.0225,0,0,0,0,0,0,0,0,0,0,0,-0.0327,-0.0327,-0.0326,-0.0313,-0.0287,-0.0287,-0.0226,-0.0253,0,0,0,0,0,0,0,0,0,0,-0.0282,-0.0306,-0.0327,-0.0326,-0.0313,-0.0287,-0.0287,-0.0254,-0.0251,-0.0231,0,-0.023,0,-0.0224,-0.0221,-0.0221,0,0,0,-0.0312,-0.0309,-0.0293,-0.0326,-0.0313,-0.0287,-0.0298,-0.0253,-0.0249,-0.0227,-0.0229,-0.0227,-0.0223,-0.022,-0.022,-0.0209,-0.0209,0,0,-0.0314,-0.0328,-0.0295,-0.0291,-0.0309,-0.0299,-0.0298,-0.0251,-0.0253,-0.0229,-0.0226,-0.0222,-0.022,-0.0219,-0.0208,-0.0209,0,0,0,-0.0319,-0.033,-0.0315,-0.0293,-0.0289,-0.0299,-0.0297,-0.0255,-0.0248,-0.0225,-0.0222,-0.022,-0.0219,-0.0208,-0.0209,-0.0232,0,0,0,-0.032,-0.0332,-0.0316,-0.0325,-0.029,-0.0278,-0.0303,-0.0252,-0.0246,-0.0222,-0.022,-0.0218,-0.0208,-0.0208,-0.023,-0.0237,0,0,0,-0.0327,-0.0333,-0.0329,-0.0326,-0.0313,-0.0278,-0.0269,-0.025,-0.0244,-0.0221,-0.0218,-0.0207,-0.0208,-0.0229,-0.0235,-0.0203,0,0,0,-0.0343,-0.0371,-0.033,-0.0364,-0.0313,-0.032,-0.0269,-0.0275,-0.0264,-0.0219,-0.0208,-0.0208,-0.0228,-0.0233,-0.0203,-0.0178,-0.0178,0,0,-0.0393,-0.0377,-0.04,-0.0363,-0.0384,-0.0323,-0.0333,-0.0296,-0.0267,-0.0219,-0.0219,-0.0231,-0.0234,-0.0203,-0.0231,-0.023,0,0,0,-0.0426,-0.0429,-0.0434,-0.0432,-0.042,-0.0382,-0.0343,-0.0314,-0.0278,-0.0263,-0.0243,-0.0245,-0.0224,-0.0208,-0.0208,-0.0085,-0.0213,-0.0213,-0.0213,-0.0457,-0.0462,-0.0491,-0.048,-0.0473,-0.0424,-0.0392,-0.034,-0.0311,-0.0304,-0.0273,-0.0279,-0.0266,-0.0264,-0.014,-0.0285,-0.0286,-0.0286,-0.0286,-0.0494,-0.0504,-0.0504,-0.0532,-0.0496,-0.0483,-0.0412,-0.038,-0.0313,-0.0306,-0.0284,-0.0247,-0.0265,-0.0132,-0.0287,-0.0287,-0.0287,-0.0287,-0.0287,-0.0477,-0.0493,-0.0511,-0.0546,-0.0538,-0.0504,-0.0464,-0.0403,-0.0337,-0.0314,-0.0263,-0.0262,-0.0133,-0.0293,-0.0293,-0.0293,-0.0293,-0.0293,-0.0292,-0.0456,-0.0483,-0.0533,-0.0561,-0.0578,-0.0564,-0.0487,-0.0438,-0.034,-0.0283,-0.0282,-0.0124,-0.028,-0.0265,-0.0291,-0.0291,-0.0292,-0.0292,-0.0292,-0.0453,-0.0486,-0.0556,-0.0594,-0.0637,-0.0622,-0.0549,-0.0427,-0.0349,-0.0297,-0.0083,-0.0251,-0.023,-0.0231,-0.0215,-0.0225,-0.0225,-0.0225,-0.0225,-0.046,-0.0481,-0.0596,-0.0662,-0.0688,-0.0654,-0.0572,-0.042,-0.017,-0.0023,0.0013,0.0027,0.0019,0.0055,0.0049,0.0071,0.0133,0.0134,0.0134,-0.0478,-0.052,-0.06,-0.0686,-0.0718,-0.0682,-0.0591,-0.0361,0.0018,0.0162,0.0182,0.0166,0.0198,0.0175,0.0239,0.0219,0.0257,0,0]}],[{"header":{"parameterUnit":"m.s-1","parameterCategory":2,"la1":30.2992,"la2":30.254,"lo1":-89.0895,"lo2":-89.0443,"dy":0.0025,"dx":0.0025,"nx":19,"ny":19,"refTime":"2026-03-18T21:00:00:Z","depth":"2","parameterNumber":2,"parameterNumberName":"U-component_of_CURRENTS"},"data":[0,0,0,-0.1101,-0.1101,-0.1208,-0.1209,-0.1303,-0.1303,0,0,0,0,0,0,0,0,0,0,0,-0.1097,-0.1097,-0.1101,-0.1101,-0.1208,-0.1209,-0.1303,-0.1303,0,0,0,0,0,0,0,0,0,0,0,-0.1097,-0.1097,-0.1097,-0.1102,-0.1208,-0.1209,-0.1303,-0.1247,0,0,0,0,0,0,0,0,0,0,-0.1155,-0.1141,-0.1097,-0.1097,-0.1102,-0.1207,-0.1209,-0.1246,-0.125,-0.1224,0,-0.1227,0,-0.1223,-0.1303,-0.1303,0,0,0,-0.116,-0.1137,-0.1142,-0.1097,-0.1102,-0.1207,-0.1177,-0.1249,-0.1255,-0.123,-0.1228,-0.1231,-0.1225,-0.1303,-0.1303,-0.1372,-0.1373,0,0,-0.1155,-0.1142,-0.1139,-0.1145,-0.1109,-0.1173,-0.1179,-0.1254,-0.1262,-0.1228,-0.1233,-0.1226,-0.1303,-0.1302,-0.1371,-0.1372,0,0,0,-0.1098,-0.1138,-0.1146,-0.1142,-0.114,-0.1174,-0.1182,-0.1261,-0.1256,-0.1233,-0.1227,-0.1302,-0.1302,-0.137,-0.1371,-0.1409,0,0,0,-0.1097,-0.11,-0.1142,-0.114,-0.1139,-0.1205,-0.1187,-0.1253,-0.126,-0.1227,-0.1302,-0.1302,-0.1369,-0.1371,-0.1406,-0.1391,0,0,0,-0.1096,-0.11,-0.1102,-0.1138,-0.1151,-0.1204,-0.1209,-0.1256,-0.1252,-0.1303,-0.1302,-0.1369,-0.1371,-0.1404,-0.1388,-0.1351,0,0,0,-0.1096,-0.1099,-0.1102,-0.1124,-0.1149,-0.1184,-0.1209,-0.1258,-0.1302,-0.1302,-0.1369,-0.1371,-0.1403,-0.1387,-0.135,-0.1254,-0.125,0,0,-0.1098,-0.11,-0.1118,-0.1121,-0.1203,-0.1175,-0.1249,-0.1317,-0.1324,-0.1349,-0.1352,-0.1407,-0.1388,-0.1351,-0.1361,-0.1353,0,0,0,-0.1119,-0.1137,-0.1171,-0.121,-0.1226,-0.1274,-0.1286,-0.1328,-0.1411,-0.1345,-0.1434,-0.1421,-0.1395,-0.1338,-0.1333,-0.138,-0.138,-0.138,-0.1379,-0.117,-0.1184,-0.1239,-0.1262,-0.1289,-0.1335,-0.1384,-0.1429,-0.1423,-0.1481,-0.1473,-0.1498,-0.1442,-0.1435,-0.1515,-0.1515,-0.1515,-0.1515,-0.1515,-0.1211,-0.1209,-0.1278,-0.1324,-0.1365,-0.1388,-0.1462,-0.1488,-0.1526,-0.1546,-0.1519,-0.1408,-0.1431,-0.1519,-0.1518,-0.1518,-0.1517,-0.1517,-0.1517,-0.1199,-0.1184,-0.1237,-0.1299,-0.137,-0.1421,-0.1459,-0.1515,-0.1543,-0.1538,-0.1428,-0.1426,-0.1466,-0.1515,-0.1514,-0.1514,-0.1514,-0.1514,-0.1514,-0.1125,-0.1172,-0.119,-0.1274,-0.1297,-0.1357,-0.143,-0.1433,-0.1433,-0.1437,-0.1436,-0.1496,-0.1496,-0.1465,-0.1511,-0.1512,-0.1512,-0.1512,-0.1512,-0.103,-0.1063,-0.1071,-0.1101,-0.1178,-0.1169,-0.128,-0.1274,-0.1288,-0.1259,-0.1368,-0.1372,-0.133,-0.1333,-0.1299,-0.1298,-0.1298,-0.1298,-0.1298,-0.0952,-0.0978,-0.0972,-0.0987,-0.1018,-0.1078,-0.0999,-0.1007,-0.1084,-0.1103,-0.1111,-0.111,-0.1123,-0.1068,-0.1078,-0.1038,-0.097,-0.0969,-0.0969,-0.0907,-0.0908,-0.0874,-0.0907,-0.0938,-0.0937,-0.0824,-0.074,-0.0805,-0.0956,-0.1055,-0.1276,-0.1298,-0.1309,-0.1246,-0.1254,-0.1197,0,0]},{"header":{"parameterUnit":"m.s-1","parameterCategory":2,"la1":30.2992,"la2":30.254,"lo1":-89.0895,"lo2":-89.0443,"dy":0.0025,"dx":0.0025,"nx":19,"ny":19,"refTime":"2026-03-18T21:00:00:Z","depth":"2","parameterNumber":3,"parameterNumberName":"V-component_of_CURRENTS"},"data":[0,0,0,-0.0127,-0.0126,-0.0127,-0.0127,-0.0089,-0.0088,0,0,0,0,0,0,0,0,0,0,0,-0.0137,-0.0137,-0.0127,-0.0126,-0.0127,-0.0127,-0.0089,-0.0088,0,0,0,0,0,0,0,0,0,0,0,-0.0137,-0.0137,-0.0138,-0.0126,-0.0126,-0.0127,-0.0089,-0.0101,0,0,0,0,0,0,0,0,0,0,-0.0106,-0.0118,-0.0137,-0.0138,-0.0126,-0.0126,-0.0127,-0.0102,-0.01,-0.0075,0,-0.0077,0,-0.0071,-0.0084,-0.0084,0,0,0,-0.0136,-0.012,-0.0116,-0.0138,-0.0126,-0.0126,-0.0129,-0.0101,-0.0099,-0.0072,-0.0076,-0.0075,-0.007,-0.0083,-0.0083,-0.005,-0.005,0,0,-0.0136,-0.0139,-0.0117,-0.0114,-0.0128,-0.0129,-0.0129,-0.01,-0.01,-0.0076,-0.0074,-0.007,-0.0083,-0.0082,-0.005,-0.005,0,0,0,-0.013,-0.0139,-0.0137,-0.0116,-0.0113,-0.0129,-0.0129,-0.0102,-0.01,-0.0074,-0.0069,-0.0083,-0.0082,-0.005,-0.005,-0.0096,0,0,0,-0.013,-0.0135,-0.0137,-0.0139,-0.0114,-0.0111,-0.0131,-0.0103,-0.0099,-0.0069,-0.0083,-0.0081,-0.0049,-0.005,-0.0094,-0.0111,0,0,0,-0.0137,-0.0135,-0.0135,-0.014,-0.0133,-0.0112,-0.011,-0.0102,-0.0095,-0.0084,-0.0081,-0.0049,-0.005,-0.0093,-0.0109,-0.01,0,0,0,-0.014,-0.0142,-0.0136,-0.0144,-0.0133,-0.0114,-0.011,-0.0094,-0.0084,-0.0082,-0.0049,-0.005,-0.0093,-0.0107,-0.0099,-0.0078,-0.0082,0,0,-0.0143,-0.0142,-0.015,-0.0144,-0.0169,-0.0115,-0.0117,-0.0103,-0.0082,-0.0057,-0.0057,-0.0095,-0.0109,-0.01,-0.0095,-0.0097,0,0,0,-0.0152,-0.0166,-0.0173,-0.0186,-0.0162,-0.0153,-0.0107,-0.0103,-0.0102,-0.0075,-0.0087,-0.0094,-0.0087,-0.0073,-0.0075,-0.0051,-0.0051,-0.0051,-0.0051,-0.0177,-0.0185,-0.0217,-0.0219,-0.0203,-0.0167,-0.0158,-0.0137,-0.0105,-0.0117,-0.0127,-0.0145,-0.0131,-0.0132,-0.0122,-0.0122,-0.0122,-0.0123,-0.0123,-0.0222,-0.0247,-0.0263,-0.0295,-0.0276,-0.0253,-0.0211,-0.0192,-0.0173,-0.0161,-0.0152,-0.0116,-0.0137,-0.0126,-0.0126,-0.0125,-0.0125,-0.0124,-0.0124,-0.0249,-0.0262,-0.029,-0.0341,-0.0356,-0.032,-0.0324,-0.0276,-0.0221,-0.0211,-0.0166,-0.0165,-0.0164,-0.0201,-0.0201,-0.0201,-0.0202,-0.0202,-0.0202,-0.0263,-0.0292,-0.0353,-0.0396,-0.0421,-0.043,-0.0379,-0.0345,-0.0264,-0.0207,-0.0207,-0.0171,-0.0168,-0.0167,-0.0202,-0.0202,-0.0202,-0.0202,-0.0202,-0.0295,-0.032,-0.0404,-0.0451,-0.0516,-0.0524,-0.0472,-0.0371,-0.0312,-0.0263,-0.0192,-0.0192,-0.0167,-0.0165,-0.0163,-0.0194,-0.0194,-0.0194,-0.0194,-0.032,-0.0341,-0.0467,-0.0546,-0.0595,-0.0574,-0.0516,-0.0384,-0.0252,-0.0174,-0.0175,-0.0163,-0.0164,-0.0138,-0.0136,-0.0133,-0.0157,-0.0157,-0.0157,-0.0361,-0.0397,-0.0487,-0.0577,-0.0633,-0.0613,-0.0534,-0.0342,-0.0154,-0.0156,-0.0175,-0.0191,-0.0174,-0.0175,-0.0134,-0.0132,-0.0126,0,0]}],[{"header":{"parameterUnit":"m.s-1","parameterCategory":2,"la1":30.2992,"la2":30.254,"lo1":-89.0895,"lo2":-89.0443,"dy":0.0025,"dx":0.0025,"nx":19,"ny":19,"refTime":"2026-03-18T21:00:00:Z","depth":"4","parameterNumber":2,"parameterNumberName":"U-component_of_CURRENTS"},"data":[0,0,0,-0.0528,-0.0529,-0.0558,-0.0558,-0.0586,-0.0586,0,0,0,0,0,0,0,0,0,0,0,-0.0504,-0.0505,-0.0528,-0.0529,-0.0558,-0.0558,-0.0585,-0.0586,0,0,0,0,0,0,0,0,0,0,0,-0.0504,-0.0505,-0.0505,-0.0529,-0.0558,-0.0558,-0.0585,-0.0562,0,0,0,0,0,0,0,0,0,0,-0.0533,-0.051,-0.0505,-0.0505,-0.0529,-0.0558,-0.0558,-0.0561,-0.0564,-0.0574,0,-0.058,0,-0.0597,-0.0589,-0.0589,0,0,0,-0.0514,-0.0508,-0.053,-0.0505,-0.053,-0.0558,-0.0541,-0.0562,-0.0565,-0.0577,-0.0581,-0.0582,-0.0597,-0.0589,-0.0589,-0.0653,-0.0653,0,0,-0.0512,-0.0496,-0.0528,-0.0532,-0.0541,-0.054,-0.0542,-0.0564,-0.056,-0.0581,-0.0583,-0.0598,-0.0589,-0.059,-0.0652,-0.0653,0,0,0,-0.0518,-0.0495,-0.0516,-0.053,-0.0544,-0.0541,-0.0543,-0.0558,-0.057,-0.0584,-0.0598,-0.059,-0.059,-0.0652,-0.0652,-0.0693,0,0,0,-0.0516,-0.05,-0.0515,-0.0504,-0.0544,-0.0552,-0.0537,-0.0567,-0.0571,-0.0598,-0.059,-0.0591,-0.0651,-0.0652,-0.0691,-0.073,0,0,0,-0.0503,-0.0498,-0.0506,-0.0503,-0.0526,-0.0552,-0.0563,-0.0568,-0.0581,-0.0589,-0.0591,-0.0651,-0.0652,-0.0689,-0.0726,-0.0804,0,0,0,-0.048,-0.0482,-0.0505,-0.0506,-0.0526,-0.0553,-0.0563,-0.0572,-0.0576,-0.059,-0.0651,-0.0652,-0.0689,-0.0724,-0.08,-0.0648,0,0,0,-0.0471,-0.048,-0.0481,-0.0503,-0.0528,-0.0548,-0.0583,-0.0591,-0.0597,-0.064,-0.0641,-0.0692,-0.0726,-0.0803,-0.0699,0,0,0,0,-0.047,-0.0485,-0.0487,-0.0513,-0.0532,-0.0583,-0.0593,-0.0621,-0.0663,-0.0609,-0.0698,-0.0719,-0.0766,-0.0667,-0.0656,-0.0656,-0.0656,-0.0656,-0.0656,-0.0473,-0.0489,-0.0509,-0.0541,-0.0564,-0.0613,-0.0656,-0.0706,-0.0682,-0.0715,-0.0756,-0.0848,-0.0743,-0.0748,-0.0748,-0.0748,-0.0748,-0.0749,-0.0749,-0.0501,-0.0512,-0.0559,-0.0587,-0.0639,-0.0686,-0.0761,-0.0769,-0.0856,-0.081,-0.0853,-0.0719,-0.0753,-0.0752,-0.0751,-0.0751,-0.0751,-0.075,-0.075,-0.0511,-0.0514,-0.0552,-0.0612,-0.0691,-0.0742,-0.0837,-0.0883,-0.0919,-0.0958,-0.0872,-0.0902,-0.0897,-0.098,-0.0981,-0.0981,-0.0982,-0.0982,-0.0982,-0.0485,-0.0524,-0.0548,-0.0626,-0.067,-0.0755,-0.0881,-0.0932,-0.0986,-0.0928,-0.0983,-0.0928,-0.092,-0.0912,-0.099,-0.0989,-0.0988,-0.0987,-0.0987,-0.0452,-0.0469,-0.0501,-0.0539,-0.0639,-0.0709,-0.0845,-0.0922,-0.0985,-0.098,-0.092,-0.0921,-0.0907,-0.0901,-0.0891,-0.0966,-0.0965,-0.0963,0,-0.0411,-0.0427,-0.0443,-0.0482,-0.0556,-0.0664,-0.0727,-0.0811,-0.0877,-0.084,-0.0981,-0.0911,-0.091,-0.0888,-0.0881,-0.0865,0,0,0,-0.0377,-0.0384,-0.0379,-0.0424,-0.0505,-0.0612,-0.0738,-0.074,-0.0858,-0.0868,-0.0923,-0.0933,-0.0942,-0.1014,-0.0996,-0.0986,-0.0973,0,0]},{"header":{"parameterUnit":"m.s-1","parameterCategory":2,"la1":30.2992,"la2":30.254,"lo1":-89.0895,"lo2":-89.0443,"dy":0.0025,"dx":0.0025,"nx":19,"ny":19,"refTime":"2026-03-18T21:00:00:Z","depth":"4","parameterNumber":3,"parameterNumberName":"V-component_of_CURRENTS"},"data":[0,0,0,0.0053,0.0053,0.0075,0.0076,0.0099,0.0099,0,0,0,0,0,0,0,0,0,0,0,0.0054,0.0054,0.0053,0.0053,0.0075,0.0076,0.0099,0.0099,0,0,0,0,0,0,0,0,0,0,0,0.0054,0.0054,0.0054,0.0053,0.0075,0.0076,0.0099,0.0086,0,0,0,0,0,0,0,0,0,0,0.0067,0.0069,0.0054,0.0054,0.0053,0.0075,0.0076,0.0086,0.0087,0.0083,0,0.0085,0,0.0083,0.0099,0.0099,0,0,0,0.0066,0.0069,0.0065,0.0054,0.0053,0.0075,0.0069,0.0087,0.0088,0.0085,0.0085,0.0086,0.0083,0.0099,0.0099,0.0108,0.0108,0,0,0.0064,0.0068,0.0064,0.0066,0.0057,0.0068,0.0069,0.0088,0.0093,0.0085,0.0086,0.0083,0.0099,0.0099,0.0108,0.0108,0,0,0,0.0053,0.0067,0.0064,0.0065,0.0064,0.0068,0.007,0.0093,0.0089,0.0087,0.0084,0.0099,0.0099,0.0108,0.0108,0.0063,0,0,0,0.0052,0.0059,0.0063,0.0067,0.0063,0.008,0.0075,0.0088,0.009,0.0083,0.0099,0.0099,0.0108,0.0108,0.0064,0.0023,0,0,0,0.0054,0.0059,0.0059,0.0067,0.0069,0.0079,0.0078,0.0089,0.0087,0.0099,0.0099,0.0108,0.0108,0.0065,0.0026,0.0014,0,0,0,0.006,0.0068,0.006,0.0067,0.0068,0.0072,0.0078,0.0089,0.01,0.0099,0.0108,0.0108,0.0065,0.0027,0.0016,0.0013,0,0,0,0.0073,0.007,0.0073,0.0065,0.0052,0.007,0.0062,0.0078,0.0101,0.0104,0.0104,0.0064,0.0026,0.0014,0.0024,0,0,0,0,0.0078,0.007,0.007,0.0058,0.0062,0.004,0.0062,0.0071,0.0082,0.0105,0.008,0.0058,0.0052,0.0056,0.0109,0.0109,0.0109,0.0109,0.0109,0.0082,0.0069,0.0047,0.0024,0.0024,0.0023,0.0017,0.003,0.0064,0.0067,0.0034,0.0008,0.0013,0.0061,0.0061,0.006,0.006,0.006,0.006,0.005,0.0017,-0.0005,-0.0033,-0.0054,-0.0062,-0.0051,-0.003,-0.0026,0.0009,0.0007,0.0024,0.0056,0.0057,0.0057,0.0058,0.0058,0.0058,0.0059,0.0016,-0.0006,-0.0027,-0.009,-0.0131,-0.0131,-0.0165,-0.0132,-0.008,-0.0089,-0.0059,-0.0023,-0.0034,-0.0075,-0.0075,-0.0076,-0.0076,-0.0076,-0.0076,-0.0016,-0.0042,-0.0098,-0.0153,-0.0194,-0.0229,-0.0226,-0.0213,-0.016,-0.0124,-0.0099,-0.0037,-0.0033,-0.0041,-0.008,-0.0079,-0.0079,-0.0078,-0.0078,-0.0063,-0.0074,-0.0158,-0.0207,-0.0296,-0.0318,-0.0311,-0.0258,-0.0243,-0.0202,-0.0132,-0.0128,-0.0115,-0.0109,-0.0119,-0.0182,-0.0182,-0.0182,0,-0.0091,-0.0105,-0.0213,-0.0296,-0.0367,-0.0372,-0.0356,-0.032,-0.0245,-0.0239,-0.0243,-0.0168,-0.0163,-0.015,-0.0144,-0.0158,0,0,0,-0.0126,-0.0156,-0.0233,-0.0317,-0.0397,-0.0371,-0.035,-0.0325,-0.0254,-0.0224,-0.0188,-0.0186,-0.014,-0.009,-0.006,-0.0055,-0.0067,0,0]}]]